Home   Weather   Teresina   Past weeks

Flag for Brazil Past Weather in Teresina, Piauí, Brazil — Yesterday and Last 2 Weeks

Now
93 °F

Partly sunny.


Feels Like: 96 °F
Forecast: 74 / 95 °F
Wind: 8 mph from Southeast

Location: Teresina Aeroporto

Current Time: Jul 21, 2017 at 3:50:21 pm

Latest Report: Jul 21, 2017 at 3:00 pm


Visibility: N/A

Pressure: 29.89 "Hg

Humidity: 41%

Dew Point: 66 °F

Location of TeresinaLocation

Past Weather in Teresina — Graph

°F

Teresina Temperature Yesterday

Maximum temperature yesterday: 95 °F (at 4:00 pm)
Minimum temperature yesterday: 72 °F (at 3:00 am)
Average temperature yesterday: 82 °F

High & Low Weather Summary for the Past Weeks

 TemperatureHumidityPressure
High95 °F (Jul 20, 4:00 pm)100% (Jul 12, 8:00 am)30.07 "Hg (Jul 12, 8:00 am)
Low66 °F (Jul 19, 4:00 am)24% (Jul 15, 4:00 pm)29.83 "Hg (Jul 12, 6:00 pm)
Average82 °F55%29.95 "Hg
* Reported Jul 6 2:00 pm — Jul 21 2:00 pm, Teresina. Weather by CustomWeather, © 2017

Note: Actual official high and low records may vary slightly from our data, if they occured in-between our weather recording intervals... More about our weather records

Advertising

Teresina Weather History for the Previous 24 Hours

Scroll right to see more
 ConditionsComfort  
Time TempWeatherWind HumidityBarometerVisibility
2:00 pm
Fri, Jul 21
91 °FScattered clouds.8 mph44%29.92 "HgN/A
1:00 pm90 °FPartly sunny.8 mph46%29.95 "HgN/A
12:00 pm88 °FPassing clouds.10 mph49%29.98 "HgN/A
11:00 am88 °FPassing clouds.12 mph49%30.01 "HgN/A
10:00 am86 °FPassing clouds.13 mph52%30.04 "HgN/A
9:00 am84 °FPassing clouds.12 mph58%30.04 "HgN/A
8:00 am82 °FSunny.10 mph62%30.01 "Hg10 mi
7:00 am77 °FSunny.2 mph83%29.98 "Hg10 mi
6:00 am77 °FPassing clouds.2 mph89%29.98 "HgN/A
5:00 am77 °FPartly cloudy.No wind83%29.95 "HgN/A
4:00 am77 °FPassing clouds.No wind83%29.95 "HgN/A
3:00 am77 °FPartly cloudy.3 mph89%29.95 "HgN/A
2:00 am79 °FPartly cloudy.2 mph79%29.95 "HgN/A
1:00 am81 °FPartly cloudy.6 mph74%29.98 "HgN/A
12:00 am81 °FPassing clouds.5 mph74%30.01 "HgN/A
11:00 pm
Thu, Jul 20
81 °FPartly cloudy.3 mph84%29.98 "HgN/A
10:00 pm81 °FLight rain. Partly cloudy.7 mph79%29.98 "HgN/A
9:00 pm84 °FClear.2 mph58%29.95 "Hg10 mi
8:00 pm86 °FClear.2 mph55%29.92 "Hg10 mi
7:00 pm88 °FClear.5 mph52%29.89 "Hg10 mi
6:00 pm91 °FClear.5 mph41%29.89 "Hg10 mi
5:00 pm95 °FSunny.5 mph34%29.86 "Hg10 mi
4:00 pm95 °FPassing clouds.8 mph32%29.86 "HgN/A
Weather by CustomWeather, © 2017

See weather overviewHow to use our weather pages